{"data":{"norad_id":63160,"epoch":"2026-09-22T21:59:43.137600Z","epoch_age_seconds":102003,"freshness":"FRESH","line1":"1 63160U 25046B   26265.91647150  .00000007  00000+0 -74224-5 0  9998","line2":"2 63160  88.9638 290.4026 0001818  98.1365 261.9992 13.51018619 85841","mean_motion":13.51018619,"eccentricity":0.0001818,"inclination_deg":88.9638,"raan_deg":290.4026,"arg_perigee_deg":98.1365,"mean_anomaly_deg":261.9992,"bstar":-7.4224e-6,"rev_number":8584,"period_min":106.58624387174,"perigee_km":1067.1593663513,"apogee_km":1069.8669683522,"semimajor_km":7446.6501673518,"source":"CELESTRAK","updated_at":"2026-09-23T09:00:21.846390Z"}}